Weather in Zhelokhovo

Russia / Kaluga Oblast     54°21′56″N   36°08′20″E
temp.,
°C
wind,
m/s
gust,
m/s
humid.,
%
clouds,
%
prec.,
mm/h
press.,
hPa
HPBL,
m
29 november, mon
mon2900:000se2693100 0.0 1009122
03:00+3se41196100 0.0 1007441
06:00+3se41095100 0.0 1004256
09:00+3se2797100 0.3 1003189
12:00+4ese41096100 0.3 1000293
15:00+4ese41098100 0.5 997398
18:00+5se51198100 0.0 994343
21:00+6ese51398100 0.4 987513
30 november, tue
tue3000:00+8se71494100 5.6 979715
03:00+8s51296100 7.9 974571
06:00+6wsw81588100 0.3 9741069
09:00+4sw91890100 0.4 9791167
12:00+2sw10178891 0.3 9811336
15:000wsw101975100 0.4 9821483
18:00−1wsw101875100 0.3 9841623
21:00−1wsw101781100 0.8 9871390
1 december, wed
wed100:00−2wsw7137698 0.1 9891138
03:00−1wsw71273100 0.1 9901160
06:00−2wsw6117799 0.0 9901046
09:00−2wsw51085100 0.1 992928
12:00−1wsw51074100 0.2 9931185
15:00−1w5969100 0.2 9931201
18:00−3w61072100 0.0 9951057
21:00−4wnw597470 0.1 997938
2 december, thu
thu200:00−5w49798 0.0 1000592
03:00−5wsw488297 0.0 1001442
06:00−5sw3780100 0.0 1002344
09:00−4s41079100 0.0 1002367
12:00−3s61479100 0.1 1000703
15:00−2s61495100 1.3 998645
18:000ssw61497100 0.8 998700
21:00+1sw61397100 0.9 999700
3 december, fri
fri300:00+1sw51398100 0.1 1000653
03:00+2ssw51295100 0.2 1001591
06:00+2ssw51194100 0.0 1002511
09:00+2ssw41196100 0.0 1003474
12:00+1s4999100 1.1 1002465
15:00+1s41298100 3.9 1000665
18:00+2sw3998100 1.7 1000604
21:000w25100100 3.8 999327